IU7TPK-1 Weather Reports


Display with metric or nautical units.
time (UTC)temp
F
wind
direction
speed
MPH
gust
MPH
rain 1hr
in
rain 24hr
in
rain mn
in
humidity
%
barometer
mb
20260503212005 61 271 0.0 2.0 0.00 0.00 0.00 60 1017.0
20260503211509 61 271 0.0 2.0 0.00 0.00 0.00 60 1017.0
20260503211006 61 271 0.0 3.0 0.00 0.00 0.00 60 1017.0
20260503210506 61 271 0.0 3.0 0.00 0.00 0.00 60 1017.0
20260503210009 61 271 0.0 2.0 0.00 0.00 0.00 60 1017.0
20260503205506 61 271 0.0 2.0 0.00 0.00 0.00 60 1017.0
20260503205006 61 271 0.0 3.0 0.00 0.00 0.00 60 1017.0
20260503204005 61 271 0.0 2.0 0.00 0.00 0.00 60 1017.0
20260503203506 61 271 0.0 2.0 0.00 0.00 0.00 60 1017.0
20260503202506 62 271 0.0 2.0 0.00 0.00 0.00 59 1017.0
20260503202006 62 271 0.0 2.0 0.00 0.00 0.00 59 1017.0
20260503201508 62 271 0.0 2.0 0.00 0.00 0.00 58 1017.0
20260503201006 62 271 0.0 2.0 0.00 0.00 0.00 59 1017.0
20260503200505 62 271 0.0 2.0 0.00 0.00 0.00 59 1017.0
20260503200008 62 271 0.0 2.0 0.00 0.00 0.00 59 1017.0
20260503195506 62 0 0.0 0.0 0.00 0.00 0.00 59 1017.0
20260503195006 62 0 0.0 0.0 0.00 0.00 0.00 58 1017.0
20260503194508 62 271 0.0 3.0 0.00 0.00 0.00 57 1017.0
20260503194006 62 271 0.0 3.0 0.00 0.00 0.00 56 1017.0
20260503193506 63 271 0.0 3.0 0.00 0.00 0.00 54 1016.0
20260503193008 63 264 0.0 3.0 0.00 0.00 0.00 53 1016.0
20260503192006 64 232 0.0 2.0 0.00 0.00 0.00 51 1016.0
20260503191508 64 233 0.0 2.0 0.00 0.00 0.00 47 1016.0
20260503191006 64 243 0.0 3.0 0.00 0.00 0.00 45 1016.0
20260503190505 64 246 0.0 3.0 0.00 0.00 0.00 44 1016.0
20260503190008 64 216 0.0 3.0 0.00 0.00 0.00 44 1016.0
20260503185506 64 178 0.0 4.0 0.00 0.00 0.00 44 1016.0
20260503185006 64 50 0.0 4.0 0.00 0.00 0.00 44 1016.0
20260503184508 64 39 0.0 4.0 0.00 0.00 0.00 44 1016.0
20260503184006 64 39 2.0 4.0 0.00 0.00 0.00 44 1016.0
20260503183506 65 30 2.0 3.0 0.00 0.00 0.00 43 1016.0
20260503183008 65 23 0.0 4.0 0.00 0.00 0.00 43 1016.0
20260503182505 66 23 0.0 4.0 0.00 0.00 0.00 42 1016.0
20260503182006 66 289 0.0 2.0 0.00 0.00 0.00 41 1016.0
20260503181508 66 289 0.0 2.0 0.00 0.00 0.00 40 1016.0
20260503180506 67 289 0.0 2.0 0.00 0.00 0.00 38 1016.0
20260503180008 67 289 0.0 2.0 0.00 0.00 0.00 38 1016.0
20260503175505 67 289 0.0 2.0 0.00 0.00 0.00 38 1016.0
20260503175006 67 0 0.0 0.0 0.00 0.00 0.00 38 1015.0
20260503174508 68 289 0.0 2.0 0.00 0.00 0.00 38 1015.0
20260503174005 68 289 0.0 2.0 0.00 0.00 0.00 38 1015.0
20260503173506 68 289 0.0 2.0 0.00 0.00 0.00 37 1015.0
20260503173008 68 290 0.0 3.0 0.00 0.00 0.00 37 1015.0
20260503172505 68 283 0.0 3.0 0.00 0.00 0.00 36 1015.0
20260503172006 68 278 2.0 3.0 0.00 0.00 0.00 36 1015.0
20260503171508 69 282 0.0 3.0 0.00 0.00 0.00 36 1015.0
20260503171006 69 292 0.0 3.0 0.00 0.00 0.00 36 1015.0
20260503170506 69 300 0.0 4.0 0.00 0.00 0.00 36 1015.0
20260503151005 74 320 3.0 7.0 0.00 0.00 0.00 34 1015.0
20260503131005 74 8 4.0 6.0 0.00 0.00 0.00 37 1016.0
20260503110506 73 18 5.0 8.0 0.00 0.00 0.00 37 1016.0
20260503090506 71 302 3.0 6.0 0.00 0.00 0.00 38 1016.0
20260503081005 68 297 4.0 6.0 0.00 0.00 0.00 44 1017.0
20260503080506 68 301 4.0 6.0 0.00 0.00 0.00 44 1017.0
20260503072505 66 297 4.0 8.0 0.00 0.00 0.00 45 1017.0
20260503071508 65 297 5.0 6.0 0.00 0.00 0.00 45 1016.0
20260503071006 65 298 5.0 8.0 0.00 0.00 0.00 45 1016.0
20260503070506 65 294 5.0 8.0 0.00 0.00 0.00 46 1017.0
20260503055006 62 303 4.0 9.0 0.00 0.00 0.00 46 1017.0
20260503054508 62 303 7.0 9.0 0.00 0.00 0.00 46 1017.0
20260503054006 61 307 4.0 7.0 0.00 0.00 0.00 46 1017.0
20260503053008 61 304 4.0 8.0 0.00 0.00 0.00 46 1017.0
20260503052506 61 308 3.0 7.0 0.00 0.00 0.00 46 1017.0
20260503052005 60 306 4.0 7.0 0.00 0.00 0.00 46 1017.0
20260503051005 60 307 4.0 6.0 0.00 0.00 0.00 46 1017.0
20260503050506 60 299 4.0 7.0 0.00 0.00 0.00 46 1017.0
20260503050008 59 303 4.0 7.0 0.00 0.00 0.00 46 1017.0
20260503045505 59 308 4.0 8.0 0.00 0.00 0.00 46 1017.0
20260503045005 59 306 5.0 8.0 0.00 0.00 0.00 46 1017.0
20260503044509 59 308 3.0 8.0 0.00 0.00 0.00 47 1017.0
20260503044005 59 314 3.0 6.0 0.00 0.00 0.00 47 1017.0
20260503043505 58 310 4.0 6.0 0.00 0.00 0.00 47 1017.0
20260503043008 58 306 4.0 8.0 0.00 0.00 0.00 47 1017.0
20260503042005 58 304 3.0 8.0 0.00 0.00 0.00 47 1016.0
20260503041508 58 308 4.0 6.0 0.00 0.00 0.00 47 1016.0
20260503041006 58 311 5.0 6.0 0.00 0.00 0.00 47 1016.0
20260503040008 58 307 5.0 8.0 0.00 0.00 0.00 47 1016.0
20260503034005 58 317 3.0 6.0 0.00 0.00 0.00 47 1016.0
20260503033506 58 313 3.0 6.0 0.00 0.00 0.00 47 1016.0
20260503033008 58 310 4.0 6.0 0.00 0.00 0.00 47 1016.0
20260503032505 58 312 4.0 6.0 0.00 0.00 0.00 47 1016.0
20260503031508 58 326 5.0 7.0 0.00 0.00 0.00 47 1016.0
20260503031006 58 317 4.0 7.0 0.00 0.00 0.00 47 1016.0
20260503025505 58 311 3.0 6.0 0.00 0.00 0.00 47 1016.0
20260503025005 58 309 3.0 6.0 0.00 0.00 0.00 47 1017.0
20260503024508 58 314 4.0 8.0 0.00 0.00 0.00 47 1017.0
20260503023506 58 309 3.0 7.0 0.00 0.00 0.00 47 1016.0
20260503023008 58 316 4.0 6.0 0.00 0.00 0.00 47 1016.0
20260503022506 58 320 4.0 6.0 0.00 0.00 0.00 47 1016.0
20260503021508 58 330 4.0 6.0 0.00 0.00 0.00 47 1017.0
20260503021005 57 326 4.0 6.0 0.00 0.00 0.00 47 1017.0
20260503020505 58 318 4.0 6.0 0.00 0.00 0.00 47 1017.0
20260503020008 57 315 4.0 6.0 0.00 0.00 0.00 47 1017.0
20260503015505 57 318 3.0 6.0 0.00 0.00 0.00 47 1017.0
20260503015006 57 325 4.0 8.0 0.00 0.00 0.00 47 1017.0
20260503014508 57 321 3.0 8.0 0.00 0.00 0.00 47 1017.0
20260503014006 57 312 3.0 6.0 0.00 0.00 0.00 47 1017.0
20260503013505 57 314 4.0 6.0 0.00 0.00 0.00 47 1017.0
20260503013008 57 314 3.0 6.0 0.00 0.00 0.00 46 1017.0
20260503012505 57 311 3.0 6.0 0.00 0.00 0.00 46 1017.0
20260503011508 57 311 3.0 6.0 0.00 0.00 0.00 46 1017.0
20260503011006 57 310 3.0 4.0 0.00 0.00 0.00 46 1017.0
20260503005005 58 302 3.0 6.0 0.00 0.00 0.00 46 1017.0
20260503004005 57 296 4.0 6.0 0.00 0.00 0.00 47 1017.0
20260503003505 58 299 4.0 6.0 0.00 0.00 0.00 47 1017.0
20260503003007 58 298 4.0 8.0 0.00 0.00 0.00 47 1017.0
20260503002505 57 296 4.0 8.0 0.00 0.00 0.00 47 1017.0
20260503002005 57 300 4.0 8.0 0.00 0.00 0.00 47 1017.0
20260503001508 57 296 4.0 8.0 0.00 0.00 0.00 47 1017.0
20260503001006 57 296 5.0 8.0 0.00 0.00 0.00 48 1017.0
20260503000505 57 298 4.0 7.0 0.00 0.00 0.00 48 1018.0
20260503000008 57 295 4.0 6.0 0.00 0.00 0.00 48 1018.0
20260502235506 57 297 4.0 6.0 0.00 0.00 0.00 48 1018.0
20260502235005 57 301 3.0 6.0 0.00 0.00 0.00 48 1018.0
20260502234508 57 303 3.0 6.0 0.00 0.00 0.00 48 1018.0
20260502234005 57 300 4.0 6.0 0.00 0.00 0.00 49 1018.0
20260502233506 58 300 4.0 6.0 0.00 0.00 0.00 49 1018.0
20260502233008 57 295 4.0 6.0 0.00 0.00 0.00 49 1018.0
20260502232505 58 294 4.0 6.0 0.00 0.00 0.00 49 1018.0
20260502232006 58 306 2.0 4.0 0.00 0.00 0.00 50 1018.0
20260502231508 58 308 3.0 6.0 0.00 0.00 0.00 50 1018.0
20260502231005 57 305 3.0 6.0 0.00 0.00 0.00 50 1018.0
20260502230506 57 307 3.0 5.0 0.00 0.00 0.00 51 1019.0
20260502230008 57 308 4.0 5.0 0.00 0.00 0.00 51 1019.0
20260502225505 57 304 2.0 4.0 0.00 0.00 0.00 51 1019.0
20260502225006 57 307 3.0 4.0 0.00 0.00 0.00 51 1019.0
20260502224508 57 309 2.0 5.0 0.00 0.00 0.00 51 1019.0
20260502224005 57 310 2.0 5.0 0.00 0.00 0.00 51 1019.0
20260502223505 57 316 3.0 5.0 0.00 0.00 0.00 51 1019.0
20260502223008 57 311 3.0 5.0 0.00 0.00 0.00 51 1019.0
20260502222506 58 305 3.0 5.0 0.00 0.00 0.00 52 1019.0
20260502222005 58 306 3.0 6.0 0.00 0.00 0.00 52 1019.0
20260502221508 57 311 2.0 6.0 0.00 0.00 0.00 52 1019.0
20260502221006 58 308 3.0 5.0 0.00 0.00 0.00 52 1019.0
20260502220506 58 307 3.0 5.0 0.00 0.00 0.00 52 1019.0
20260502220009 58 311 4.0 5.0 0.00 0.00 0.00 52 1019.0
20260502215506 58 313 3.0 4.0 0.00 0.00 0.00 52 1019.0
20260502215005 58 318 2.0 5.0 0.00 0.00 0.00 51 1019.0
20260502214006 58 323 3.0 5.0 0.00 0.00 0.00 51 1019.0
20260502213008 57 321 0.0 5.0 0.00 0.00 0.00 51 1019.0
20260502212505 58 330 2.0 4.0 0.00 0.00 0.00 51 1019.0